weather.gov     
National Weather Service

Regional Weather Roundup
NWS Homepage
This page is being discontinued on March 12, 2014.
The same data is available at this site. Please update your bookmarks.
Thank you, and we apologize for the inconvenience.
Please send an email to SR-SRH.Webmaster@noaa.gov with any concerns.


Current Version
Previous Version:    01  02  03  04  05  06  07  08  09  10  11  12  13  14  15  16  17  18  19  20  21  22  23  24  25  26  27  
[Printable]
495
ASUS42 KKEY 281110
RWRKEY

FLORIDA REGIONAL WEATHER ROUNDUP FOR THE FLORIDA KEYS
NATIONAL WEATHER SERVICE KEY WEST FLORIDA
600 AM EST FRI NOV 28 2014

...SOUTH FLORIDA AND THE KEYS...

CITY           SKY/WX    TMP DP  RH WIND       PRES   REMARKS
FORT MYERS     CLEAR     48  38  68 N13       30.25R WCI  43
SW REGIONAL AP CLEAR     47  37  68 N8        30.25S WCI  43
NAPLES         CLEAR     49  37  63 N10       30.24R WCI  45
MIAMI          PTCLDY    53  42  66 N12       30.19R
WEST KENDALL   CLEAR     53  43  68 N16       30.19R
HOMESTEAD      CLEAR     54  43  67 NW16      30.18R
MARATHON       CLEAR     58  49  72 N17G24    30.19R
BOCA CHICA NAS CLEAR     58  46  64 NE21G28   30.20R
KEY WEST INTL  CLEAR     60  46  59 N16G25    30.20R

...INTERNATIONAL WEATHER...

CITY           SKY/WX    TMP DP  RH WIND       PRES   REMARKS
NASSAU BAHAMAS MOCLDY    70  54  56 NE14      30.11R
CANCUN MEXICO  PTCLDY    73  59  60 NE12      30.16R
COZUMEL MEXICO PTCLDY    72  61  68 NE15      30.15R

ADJACENT COASTAL WATERS...

STATION/POSITION TIME  SKY/WX   TEMP    WIND        PRES    WAVE
                                AIR SEA DIR/SP/G            HT/PER
                 (UTC)          (F)     (DEG/KT/KT) (MB)    (FT/S)
PULASKI SHOAL LI 1000            63      40/ 23/ 26 1022.6R
SAND KEY         1036            61      20/ 25/ 30 1022.3R
SOMBRERO KEY     1100            60      10/ 24/ 26 1022.0R
LONG KEY         0954            59 69   20/ 23/ 26 1022.2R
MOLASSES REEF    1100            59 76  340/ 20/ 22 1020.9R
FOWEY ROCKS      NOT AVBL
Buoy 42080       NOT AVBL

$$




U.S. Dept. of Commerce
NOAA National Weather Service
1325 East West Highway
Silver Spring, MD 20910
E-mail: w-nws.webmaster@noaa.gov
Page last modified: May 16, 2007
NATIONAL WEATHER SERVICE: for Safety, for Work, for Fun - FOR LIFE